Time,TemperatureF,DewpointF,PressureIn,WindDirection,WindDirectionDegrees,WindSpeedMPH,WindSpeedGustMPH,Humidity,HourlyPrecipIn,Conditions,Clouds,dailyrainin,SoftwareType,DateUTC
2013-08-09 00:00:00,69.6,68.4,29.64,NNE,33,0.0,-999.0,96,0.00,,,0.30,Wunderground v.1.15,2013-08-09 04:00:00,
2013-08-09 00:05:00,69.5,68.3,29.64,NNE,33,0.0,-999.0,96,0.00,,,0.30,Wunderground v.1.15,2013-08-09 04:05:00,
2013-08-09 00:10:00,69.4,68.2,29.64,NNE,33,0.0,-999.0,96,0.00,,,0.00,Wunderground v.1.15,2013-08-09 04:10:00,
2013-08-09 00:15:00,69.5,68.3,29.64,NNE,33,1.0,-999.0,96,0.00,,,0.00,Wunderground v.1.15,2013-08-09 04:15:00,
2013-08-09 00:20:00,69.6,68.7,29.64,NNE,33,2.0,-999.0,97,0.00,,,0.00,Wunderground v.1.15,2013-08-09 04:20:00,
2013-08-09 00:25:00,69.7,68.8,29.63,NNE,33,2.0,-999.0,97,0.00,,,0.00,Wunderground v.1.15,2013-08-09 04:25:00,
2013-08-09 00:30:00,69.7,68.8,29.63,NNE,33,1.0,-999.0,97,0.00,,,0.00,Wunderground v.1.15,2013-08-09 04:30:00,
2013-08-09 00:35:00,69.7,68.8,29.64,NNE,33,1.0,-999.0,97,0.00,,,0.00,Wunderground v.1.15,2013-08-09 04:35:00,
2013-08-09 00:40:00,69.7,68.8,29.64,NNE,33,1.0,-999.0,97,0.00,,,0.00,Wunderground v.1.15,2013-08-09 04:40:00,
2013-08-09 00:45:00,69.8,68.9,29.63,NNE,33,2.0,-999.0,97,0.00,,,0.00,Wunderground v.1.15,2013-08-09 04:45:00,
2013-08-09 00:50:00,69.8,68.9,29.63,NNE,33,1.0,-999.0,97,0.00,,,0.00,Wunderground v.1.15,2013-08-09 04:50:00,
2013-08-09 00:55:00,69.8,68.9,29.63,NNE,33,2.0,-999.0,97,0.00,,,0.00,Wunderground v.1.15,2013-08-09 04:55:00,
2013-08-09 01:00:00,69.8,68.9,29.63,NNE,33,3.0,-999.0,97,0.44,,,0.03,Wunderground v.1.15,2013-08-09 05:00:00,
2013-08-09 01:10:00,69.9,69.0,29.63,NNE,33,2.0,-999.0,97,0.06,,,0.04,Wunderground v.1.15,2013-08-09 05:10:00,
2013-08-09 01:15:00,69.8,68.9,29.62,NNE,33,2.0,-999.0,97,0.31,,,0.07,Wunderground v.1.15,2013-08-09 05:15:00,
2013-08-09 01:20:00,69.7,68.8,29.62,NNE,33,1.0,-999.0,97,0.14,,,0.09,Wunderground v.1.15,2013-08-09 05:20:00,
2013-08-09 01:25:00,69.8,68.9,29.62,NNE,33,0.0,-999.0,97,0.11,,,0.09,Wunderground v.1.15,2013-08-09 05:25:00,
2013-08-09 01:30:00,69.7,68.8,29.62,NNE,33,0.0,-999.0,97,0.06,,,0.09,Wunderground v.1.15,2013-08-09 05:30:00,
2013-08-09 01:35:00,69.6,68.7,29.61,NNE,33,0.0,-999.0,97,0.04,,,0.09,Wunderground v.1.15,2013-08-09 05:35:00,
2013-08-09 01:45:00,69.6,68.7,29.61,NNE,33,0.0,-999.0,97,0.00,,,0.09,Wunderground v.1.15,2013-08-09 05:45:00,
2013-08-09 01:50:00,69.6,68.7,29.61,NNE,33,0.0,-999.0,97,0.00,,,0.09,Wunderground v.1.15,2013-08-09 05:50:00,
2013-08-09 01:55:00,69.5,68.6,29.61,NNE,33,0.0,-999.0,97,0.00,,,0.09,Wunderground v.1.15,2013-08-09 05:55:00,
2013-08-09 02:00:00,69.5,68.6,29.61,NNE,33,0.0,-999.0,97,0.00,,,0.09,Wunderground v.1.15,2013-08-09 06:00:00,
2013-08-09 02:10:00,69.4,68.5,29.60,NNE,33,0.0,-999.0,97,0.00,,,0.09,Wunderground v.1.15,2013-08-09 06:10:00,
2013-08-09 02:20:00,69.2,68.3,29.60,NNE,33,0.0,-999.0,97,0.00,,,0.09,Wunderground v.1.15,2013-08-09 06:20:00,
2013-08-09 02:25:00,69.2,68.3,29.60,NNE,33,0.0,-999.0,97,0.00,,,0.09,Wunderground v.1.15,2013-08-09 06:25:00,
2013-08-09 02:30:00,69.1,68.2,29.60,NNE,33,0.0,-999.0,97,0.00,,,0.09,Wunderground v.1.15,2013-08-09 06:30:00,
2013-08-09 02:35:00,69.1,68.2,29.60,NNE,33,1.0,-999.0,97,0.00,,,0.09,Wunderground v.1.15,2013-08-09 06:35:00,
2013-08-09 02:40:00,69.1,68.2,29.60,NNE,33,2.0,-999.0,97,0.00,,,0.09,Wunderground v.1.15,2013-08-09 06:40:00,
2013-08-09 02:50:00,69.1,68.2,29.60,NNE,33,1.0,-999.0,97,0.00,,,0.09,Wunderground v.1.15,2013-08-09 06:50:00,
2013-08-09 02:55:00,69.0,68.1,29.60,NNE,33,1.0,-999.0,97,0.00,,,0.09,Wunderground v.1.15,2013-08-09 06:55:00,
2013-08-09 03:00:00,69.0,68.1,29.60,NNE,33,1.0,-999.0,97,0.00,,,0.09,Wunderground v.1.15,2013-08-09 07:00:00,
2013-08-09 03:10:00,69.0,68.1,29.60,NNE,33,1.0,-999.0,97,0.00,,,0.09,Wunderground v.1.15,2013-08-09 07:10:00,
2013-08-09 03:15:00,69.1,68.2,29.60,NNE,33,2.0,-999.0,97,0.00,,,0.09,Wunderground v.1.15,2013-08-09 07:15:00,
2013-08-09 03:25:00,69.2,68.3,29.60,NNE,33,0.0,-999.0,97,0.00,,,0.09,Wunderground v.1.15,2013-08-09 07:25:00,
2013-08-09 03:30:00,69.2,68.3,29.60,NNE,33,0.0,-999.0,97,0.00,,,0.09,Wunderground v.1.15,2013-08-09 07:30:00,
2013-08-09 03:35:00,69.2,68.3,29.60,NNE,33,0.0,-999.0,97,0.00,,,0.09,Wunderground v.1.15,2013-08-09 07:35:00,
2013-08-09 03:40:00,69.2,68.3,29.60,NNE,33,0.0,-999.0,97,0.00,,,0.09,Wunderground v.1.15,2013-08-09 07:40:00,
2013-08-09 03:45:00,69.1,68.2,29.60,NNE,33,0.0,-999.0,97,0.00,,,0.09,Wunderground v.1.15,2013-08-09 07:45:00,
2013-08-09 03:55:00,69.2,68.3,29.59,NNE,33,0.0,-999.0,97,0.00,,,0.09,Wunderground v.1.15,2013-08-09 07:55:00,
2013-08-09 04:00:00,69.2,68.3,29.59,NNE,33,0.0,-999.0,97,0.00,,,0.09,Wunderground v.1.15,2013-08-09 08:00:00,
2013-08-09 04:10:00,69.3,68.4,29.59,NNE,33,0.0,-999.0,97,0.00,,,0.09,Wunderground v.1.15,2013-08-09 08:10:00,
2013-08-09 04:15:00,69.3,68.4,29.59,NNE,33,0.0,-999.0,97,0.00,,,0.09,Wunderground v.1.15,2013-08-09 08:15:00,
2013-08-09 04:20:00,69.3,68.4,29.59,NNE,33,0.0,-999.0,97,0.00,,,0.09,Wunderground v.1.15,2013-08-09 08:20:00,
2013-08-09 04:30:00,69.1,68.2,29.59,NNE,33,0.0,-999.0,97,0.00,,,0.09,Wunderground v.1.15,2013-08-09 08:30:00,
2013-08-09 04:35:00,69.2,68.3,29.59,NNE,33,0.0,-999.0,97,0.00,,,0.09,Wunderground v.1.15,2013-08-09 08:35:00,
2013-08-09 04:40:00,69.0,68.1,29.59,NNE,33,0.0,-999.0,97,0.00,,,0.09,Wunderground v.1.15,2013-08-09 08:40:00,
2013-08-09 04:45:00,69.0,68.1,29.59,NNE,33,0.0,-999.0,97,0.00,,,0.09,Wunderground v.1.15,2013-08-09 08:45:00,
2013-08-09 04:50:00,68.9,68.0,29.59,NNE,33,0.0,-999.0,97,0.00,,,0.09,Wunderground v.1.15,2013-08-09 08:50:00,
2013-08-09 05:00:00,68.9,68.0,29.59,NNE,33,0.0,-999.0,97,0.00,,,0.09,Wunderground v.1.15,2013-08-09 09:00:00,
2013-08-09 05:10:00,68.7,67.8,29.59,NNE,33,0.0,-999.0,97,0.00,,,0.09,Wunderground v.1.15,2013-08-09 09:10:00,
2013-08-09 05:15:00,68.8,67.9,29.59,NNE,33,1.0,-999.0,97,0.00,,,0.10,Wunderground v.1.15,2013-08-09 09:15:00,
2013-08-09 05:20:00,68.8,67.9,29.59,NNE,33,1.0,-999.0,97,0.00,,,0.10,Wunderground v.1.15,2013-08-09 09:20:00,
2013-08-09 05:25:00,68.8,67.9,29.59,NNE,33,0.0,-999.0,97,0.00,,,0.10,Wunderground v.1.15,2013-08-09 09:25:00,
2013-08-09 05:30:00,68.8,67.9,29.59,NNE,33,1.0,-999.0,97,0.00,,,0.10,Wunderground v.1.15,2013-08-09 09:30:00,
2013-08-09 05:35:00,68.8,67.9,29.59,NNE,33,2.0,-999.0,97,0.00,,,0.10,Wunderground v.1.15,2013-08-09 09:35:00,
2013-08-09 05:45:00,69.0,68.1,29.59,NNE,33,2.0,-999.0,97,0.00,,,0.10,Wunderground v.1.15,2013-08-09 09:45:00,
2013-08-09 05:50:00,69.0,68.1,29.58,NNE,33,3.0,-999.0,97,0.00,,,0.10,Wunderground v.1.15,2013-08-09 09:50:00,
2013-08-09 05:55:00,69.0,68.1,29.58,NNE,33,3.0,-999.0,97,0.00,,,0.10,Wunderground v.1.15,2013-08-09 09:55:00,
2013-08-09 06:00:00,69.0,68.1,29.58,NNE,33,3.0,-999.0,97,0.00,,,0.10,Wunderground v.1.15,2013-08-09 10:00:00,
2013-08-09 06:10:00,69.1,68.2,29.57,NNE,33,2.0,-999.0,97,0.00,,,0.10,Wunderground v.1.15,2013-08-09 10:10:00,
2013-08-09 06:20:00,69.1,68.2,29.57,NNE,33,2.0,-999.0,97,0.00,,,0.10,Wunderground v.1.15,2013-08-09 10:20:00,
2013-08-09 06:25:00,69.1,68.2,29.57,NNE,33,2.0,-999.0,97,0.00,,,0.10,Wunderground v.1.15,2013-08-09 10:25:00,
2013-08-09 06:30:00,69.2,68.3,29.57,NNE,33,2.0,-999.0,97,0.00,,,0.10,Wunderground v.1.15,2013-08-09 10:30:00,
2013-08-09 06:40:00,69.4,68.2,29.57,NNE,33,1.0,-999.0,96,0.00,,,0.10,Wunderground v.1.15,2013-08-09 10:40:00,
2013-08-09 06:45:00,69.2,68.0,29.57,NNE,33,1.0,-999.0,96,0.00,,,0.10,Wunderground v.1.15,2013-08-09 10:45:00,
2013-08-09 06:50:00,69.2,68.0,29.57,NNE,33,1.0,-999.0,96,0.00,,,0.10,Wunderground v.1.15,2013-08-09 10:50:00,
2013-08-09 06:55:00,69.2,68.0,29.58,NNE,33,1.0,-999.0,96,0.00,,,0.10,Wunderground v.1.15,2013-08-09 10:55:00,
2013-08-09 07:00:00,69.3,68.1,29.58,NNE,33,1.0,-999.0,96,0.00,,,0.10,Wunderground v.1.15,2013-08-09 11:00:00,
2013-08-09 07:10:00,69.3,68.1,29.58,NNE,33,0.0,-999.0,96,0.00,,,0.10,Wunderground v.1.15,2013-08-09 11:10:00,
2013-08-09 07:15:00,69.3,68.1,29.57,NNE,33,0.0,-999.0,96,0.00,,,0.10,Wunderground v.1.15,2013-08-09 11:15:00,
2013-08-09 07:20:00,69.4,68.2,29.58,NNE,33,0.0,-999.0,96,0.00,,,0.10,Wunderground v.1.15,2013-08-09 11:20:00,
2013-08-09 07:25:00,69.3,68.1,29.58,NNE,33,0.0,-999.0,96,0.00,,,0.10,Wunderground v.1.15,2013-08-09 11:25:00,
2013-08-09 07:30:00,69.3,68.1,29.58,NNE,33,0.0,-999.0,96,0.00,,,0.10,Wunderground v.1.15,2013-08-09 11:30:00,
2013-08-09 07:35:00,69.3,68.4,29.58,NNE,33,0.0,-999.0,97,0.00,,,0.10,Wunderground v.1.15,2013-08-09 11:35:00,
2013-08-09 07:40:00,69.3,68.4,29.58,NNE,33,0.0,-999.0,97,0.00,,,0.10,Wunderground v.1.15,2013-08-09 11:40:00,
2013-08-09 07:45:00,69.3,68.1,29.58,NNE,33,0.0,-999.0,96,0.00,,,0.10,Wunderground v.1.15,2013-08-09 11:45:00,
2013-08-09 07:50:00,69.3,68.1,29.58,NNE,33,0.0,-999.0,96,0.00,,,0.10,Wunderground v.1.15,2013-08-09 11:50:00,
2013-08-09 07:55:00,69.3,68.4,29.58,NNE,33,0.0,-999.0,97,0.00,,,0.10,Wunderground v.1.15,2013-08-09 11:55:00,
2013-08-09 08:05:00,69.4,68.5,29.59,NNE,33,2.0,-999.0,97,0.00,,,0.11,Wunderground v.1.15,2013-08-09 12:05:00,
2013-08-09 08:10:00,69.4,68.5,29.58,NNE,33,2.0,-999.0,97,0.07,,,0.12,Wunderground v.1.15,2013-08-09 12:10:00,
2013-08-09 08:15:00,69.4,68.5,29.59,NNE,33,2.0,-999.0,97,0.07,,,0.12,Wunderground v.1.15,2013-08-09 12:15:00,
2013-08-09 08:20:00,68.9,67.7,29.59,NW,306,4.0,-999.0,96,0.07,,,0.13,Wunderground v.1.15,2013-08-09 12:20:00,
2013-08-09 08:25:00,67.7,66.5,29.58,NW,315,5.0,-999.0,96,0.20,,,0.15,Wunderground v.1.15,2013-08-09 12:25:00,
2013-08-09 08:30:00,66.9,65.4,29.59,NW,315,4.0,-999.0,95,0.32,,,0.17,Wunderground v.1.15,2013-08-09 12:30:00,
2013-08-09 08:35:00,66.6,65.4,29.58,NW,315,2.0,-999.0,96,0.33,,,0.20,Wunderground v.1.15,2013-08-09 12:35:00,
2013-08-09 08:45:00,66.4,65.2,29.58,NW,315,2.0,-999.0,96,0.19,,,0.23,Wunderground v.1.15,2013-08-09 12:45:00,
2013-08-09 08:50:00,66.6,65.4,29.58,NW,315,3.0,-999.0,96,0.16,,,0.25,Wunderground v.1.15,2013-08-09 12:50:00,
2013-08-09 08:55:00,66.5,65.3,29.58,NW,313,4.0,-999.0,96,0.17,,,0.27,Wunderground v.1.15,2013-08-09 12:55:00,
2013-08-09 09:00:00,66.5,65.3,29.57,NW,310,4.0,-999.0,96,0.18,,,0.28,Wunderground v.1.15,2013-08-09 13:00:00,
2013-08-09 09:10:00,66.5,65.3,29.57,NW,311,4.0,-999.0,96,0.14,,,0.31,Wunderground v.1.15,2013-08-09 13:10:00,
2013-08-09 09:20:00,66.6,65.4,29.58,WNW,294,4.0,-999.0,96,0.23,,,0.34,Wunderground v.1.15,2013-08-09 13:20:00,
2013-08-09 09:25:00,66.7,65.5,29.58,WNW,294,4.0,-999.0,96,0.23,,,0.36,Wunderground v.1.15,2013-08-09 13:25:00,
2013-08-09 09:30:00,66.7,65.5,29.59,WNW,290,4.0,-999.0,96,0.14,,,0.37,Wunderground v.1.15,2013-08-09 13:30:00,
2013-08-09 09:35:00,66.7,65.5,29.58,WNW,290,4.0,-999.0,96,0.19,,,0.38,Wunderground v.1.15,2013-08-09 13:35:00,
2013-08-09 09:40:00,66.6,65.4,29.58,WNW,290,4.0,-999.0,96,0.21,,,0.40,Wunderground v.1.15,2013-08-09 13:40:00,
2013-08-09 09:50:00,66.5,65.3,29.58,WNW,290,4.0,-999.0,96,0.21,,,0.42,Wunderground v.1.15,2013-08-09 13:50:00,
2013-08-09 09:55:00,66.6,65.4,29.58,WNW,290,4.0,-999.0,96,0.12,,,0.43,Wunderground v.1.15,2013-08-09 13:55:00,
2013-08-09 10:00:00,66.6,65.4,29.59,WNW,290,4.0,-999.0,96,0.12,,,0.44,Wunderground v.1.15,2013-08-09 14:00:00,
2013-08-09 10:10:00,66.4,65.2,29.58,WNW,290,3.0,-999.0,96,0.10,,,0.46,Wunderground v.1.15,2013-08-09 14:10:00,
2013-08-09 10:15:00,66.4,65.5,29.59,WNW,290,3.0,-999.0,97,0.17,,,0.48,Wunderground v.1.15,2013-08-09 14:15:00,
2013-08-09 10:20:00,66.4,65.5,29.58,WNW,290,3.0,-999.0,97,0.10,,,0.49,Wunderground v.1.15,2013-08-09 14:20:00,
2013-08-09 10:25:00,66.5,65.6,29.58,WNW,290,3.0,-999.0,97,0.16,,,0.50,Wunderground v.1.15,2013-08-09 14:25:00,
2013-08-09 10:30:00,66.5,65.6,29.58,WNW,290,2.0,-999.0,97,0.09,,,0.51,Wunderground v.1.15,2013-08-09 14:30:00,
2013-08-09 10:35:00,66.5,65.6,29.58,WNW,290,1.0,-999.0,97,0.14,,,0.52,Wunderground v.1.15,2013-08-09 14:35:00,
2013-08-09 10:45:00,66.7,65.8,29.58,WNW,290,1.0,-999.0,97,0.08,,,0.53,Wunderground v.1.15,2013-08-09 14:45:00,
2013-08-09 10:50:00,66.9,66.0,29.58,WNW,290,2.0,-999.0,97,0.12,,,0.54,Wunderground v.1.15,2013-08-09 14:50:00,
2013-08-09 10:55:00,66.9,66.0,29.58,WNW,290,3.0,-999.0,97,0.07,,,0.54,Wunderground v.1.15,2013-08-09 14:55:00,
2013-08-09 11:00:00,66.9,66.0,29.59,WNW,290,3.0,-999.0,97,0.07,,,0.55,Wunderground v.1.15,2013-08-09 15:00:00,
2013-08-09 11:10:00,67.0,66.1,29.58,WNW,290,2.0,-999.0,97,0.07,,,0.56,Wunderground v.1.15,2013-08-09 15:10:00,
2013-08-09 11:15:00,67.1,66.2,29.58,WNW,290,2.0,-999.0,97,0.06,,,0.57,Wunderground v.1.15,2013-08-09 15:15:00,
2013-08-09 11:20:00,67.2,66.3,29.58,WNW,290,3.0,-999.0,97,0.09,,,0.58,Wunderground v.1.15,2013-08-09 15:20:00,
2013-08-09 11:25:00,67.3,66.4,29.59,WNW,290,3.0,-999.0,97,0.08,,,0.58,Wunderground v.1.15,2013-08-09 15:25:00,
2013-08-09 11:30:00,67.4,66.2,29.59,WNW,290,4.0,-999.0,96,0.05,,,0.59,Wunderground v.1.15,2013-08-09 15:30:00,
2013-08-09 11:35:00,67.5,66.3,29.59,WNW,290,3.0,-999.0,96,0.05,,,0.59,Wunderground v.1.15,2013-08-09 15:35:00,
2013-08-09 11:40:00,67.6,66.4,29.58,WNW,290,3.0,-999.0,96,0.07,,,0.60,Wunderground v.1.15,2013-08-09 15:40:00,
2013-08-09 11:50:00,67.7,66.5,29.58,WNW,290,1.0,-999.0,96,0.05,,,0.60,Wunderground v.1.15,2013-08-09 15:50:00,
2013-08-09 11:55:00,67.8,66.6,29.58,WNW,290,1.0,-999.0,96,0.05,,,0.61,Wunderground v.1.15,2013-08-09 15:55:00,
2013-08-09 12:00:00,67.7,66.5,29.58,WNW,290,2.0,-999.0,96,0.05,,,0.61,Wunderground v.1.15,2013-08-09 16:00:00,
2013-08-09 12:10:00,67.7,66.5,29.58,WNW,290,3.0,-999.0,96,0.05,,,0.62,Wunderground v.1.15,2013-08-09 16:10:00,
2013-08-09 12:20:00,67.6,66.4,29.58,WNW,290,3.0,-999.0,96,0.04,,,0.62,Wunderground v.1.15,2013-08-09 16:20:00,
2013-08-09 12:25:00,67.6,66.4,29.58,WNW,290,3.0,-999.0,96,0.00,,,0.63,Wunderground v.1.15,2013-08-09 16:25:00,
2013-08-09 12:30:00,67.5,66.0,29.58,WNW,290,3.0,-999.0,95,0.00,,,0.63,Wunderground v.1.15,2013-08-09 16:30:00,
2013-08-09 12:35:00,67.5,66.3,29.59,WNW,290,2.0,-999.0,96,0.00,,,0.63,Wunderground v.1.15,2013-08-09 16:35:00,
2013-08-09 12:40:00,67.4,65.9,29.58,WNW,290,2.0,-999.0,95,0.00,,,0.63,Wunderground v.1.15,2013-08-09 16:40:00,
2013-08-09 12:45:00,67.6,66.4,29.59,WNW,290,2.0,-999.0,96,0.00,,,0.63,Wunderground v.1.15,2013-08-09 16:45:00,
2013-08-09 12:55:00,67.5,66.0,29.59,WNW,290,4.0,-999.0,95,0.00,,,0.64,Wunderground v.1.15,2013-08-09 16:55:00,
2013-08-09 13:00:00,67.7,66.2,29.59,WNW,290,3.0,-999.0,95,0.00,,,0.64,Wunderground v.1.15,2013-08-09 17:00:00,
2013-08-09 13:10:00,68.1,66.6,29.59,WNW,290,3.0,-999.0,95,0.00,,,0.64,Wunderground v.1.15,2013-08-09 17:10:00,
2013-08-09 13:15:00,68.2,66.7,29.59,WNW,290,3.0,-999.0,95,0.00,,,0.64,Wunderground v.1.15,2013-08-09 17:15:00,
2013-08-09 13:25:00,68.0,66.2,29.59,WNW,292,4.0,-999.0,94,0.00,,,0.64,Wunderground v.1.15,2013-08-09 17:25:00,
2013-08-09 13:30:00,68.1,66.3,29.59,NW,304,4.0,-999.0,94,0.00,,,0.64,Wunderground v.1.15,2013-08-09 17:30:00,
2013-08-09 13:35:00,68.4,66.6,29.59,WNW,293,5.0,-999.0,94,0.00,,,0.64,Wunderground v.1.15,2013-08-09 17:35:00,
2013-08-09 13:40:00,68.5,66.7,29.59,WNW,292,5.0,-999.0,94,0.00,,,0.64,Wunderground v.1.15,2013-08-09 17:40:00,
2013-08-09 13:45:00,68.6,66.5,29.59,NW,305,4.0,-999.0,93,0.00,,,0.65,Wunderground v.1.15,2013-08-09 17:45:00,
2013-08-09 13:50:00,69.0,67.2,29.59,WNW,302,4.0,-999.0,94,0.00,,,0.65,Wunderground v.1.15,2013-08-09 17:50:00,
2013-08-09 14:00:00,69.4,67.0,29.59,WNW,302,4.0,-999.0,92,0.00,,,0.65,Wunderground v.1.15,2013-08-09 18:00:00,
2013-08-09 14:10:00,70.0,67.3,29.59,NW,305,3.0,-999.0,91,0.00,,,0.65,Wunderground v.1.15,2013-08-09 18:10:00,
2013-08-09 14:15:00,70.3,67.2,29.59,NW,309,4.0,-999.0,90,0.00,,,0.65,Wunderground v.1.15,2013-08-09 18:15:00,
2013-08-09 14:20:00,70.6,67.2,29.59,NW,308,4.0,-999.0,89,0.00,,,0.65,Wunderground v.1.15,2013-08-09 18:20:00,
2013-08-09 14:30:00,71.0,67.3,29.60,NW,309,3.0,-999.0,88,0.00,,,0.65,Wunderground v.1.15,2013-08-09 18:30:00,
2013-08-09 14:35:00,71.3,67.6,29.60,NW,320,3.0,-999.0,88,0.00,,,0.65,Wunderground v.1.15,2013-08-09 18:35:00,
2013-08-09 14:40:00,71.3,67.2,29.60,WNW,300,4.0,-999.0,87,0.00,,,0.65,Wunderground v.1.15,2013-08-09 18:40:00,
2013-08-09 14:45:00,71.5,67.1,29.60,NW,308,5.0,-999.0,86,0.00,,,0.65,Wunderground v.1.15,2013-08-09 18:45:00,
2013-08-09 14:50:00,71.5,67.1,29.59,WNW,302,5.0,-999.0,86,0.00,,,0.65,Wunderground v.1.15,2013-08-09 18:50:00,
2013-08-09 14:55:00,71.7,67.3,29.59,NW,310,5.0,-999.0,86,0.00,,,0.65,Wunderground v.1.15,2013-08-09 18:55:00,
2013-08-09 15:00:00,71.8,67.0,29.59,WNW,299,5.0,-999.0,85,0.00,,,0.66,Wunderground v.1.15,2013-08-09 19:00:00,
2013-08-09 15:10:00,72.4,67.6,29.59,NW,317,4.0,-999.0,85,0.00,,,0.66,Wunderground v.1.15,2013-08-09 19:10:00,
2013-08-09 15:15:00,72.3,67.2,29.59,NW,304,4.0,-999.0,84,0.00,,,0.66,Wunderground v.1.15,2013-08-09 19:15:00,
2013-08-09 15:20:00,72.3,66.8,29.59,NW,310,5.0,-999.0,83,0.00,,,0.66,Wunderground v.1.15,2013-08-09 19:20:00,
2013-08-09 15:25:00,72.2,66.0,29.59,WNW,299,5.0,-999.0,81,0.00,,,0.66,Wunderground v.1.15,2013-08-09 19:25:00,
2013-08-09 15:35:00,72.2,66.4,29.59,NW,309,6.0,-999.0,82,0.00,,,0.66,Wunderground v.1.15,2013-08-09 19:35:00,
2013-08-09 15:40:00,72.8,66.6,29.59,WNW,300,6.0,-999.0,81,0.00,,,0.66,Wunderground v.1.15,2013-08-09 19:40:00,
2013-08-09 15:45:00,72.9,66.0,29.60,WNW,294,5.0,-999.0,79,0.00,,,0.66,Wunderground v.1.15,2013-08-09 19:45:00,
2013-08-09 15:50:00,72.7,65.8,29.60,West,268,6.0,-999.0,79,0.00,,,0.66,Wunderground v.1.15,2013-08-09 19:50:00,
2013-08-09 15:55:00,72.8,66.3,29.60,WNW,285,7.0,-999.0,80,0.00,,,0.66,Wunderground v.1.15,2013-08-09 19:55:00,
2013-08-09 16:00:00,72.9,66.7,29.59,WNW,285,5.0,-999.0,81,0.00,,,0.66,Wunderground v.1.15,2013-08-09 20:00:00,
2013-08-09 16:10:00,73.4,66.1,29.59,West,265,5.0,-999.0,78,0.00,,,0.66,Wunderground v.1.15,2013-08-09 20:10:00,
2013-08-09 16:15:00,73.5,66.2,29.60,West,270,6.0,-999.0,78,0.00,,,0.66,Wunderground v.1.15,2013-08-09 20:15:00,
2013-08-09 16:20:00,73.3,65.7,29.60,West,277,5.0,-999.0,77,0.00,,,0.66,Wunderground v.1.15,2013-08-09 20:20:00,
2013-08-09 16:25:00,73.3,65.7,29.60,WNW,285,5.0,-999.0,77,0.00,,,0.66,Wunderground v.1.15,2013-08-09 20:25:00,
2013-08-09 16:30:00,72.8,65.2,29.60,WNW,285,5.0,-999.0,77,0.00,,,0.66,Wunderground v.1.15,2013-08-09 20:30:00,
2013-08-09 16:40:00,73.1,65.5,29.60,WNW,285,4.0,-999.0,77,0.00,,,0.66,Wunderground v.1.15,2013-08-09 20:40:00,
2013-08-09 16:45:00,73.6,65.9,29.60,WNW,292,4.0,-999.0,77,0.00,,,0.66,Wunderground v.1.15,2013-08-09 20:45:00,
2013-08-09 16:55:00,73.8,65.0,29.60,NW,311,5.0,-999.0,74,0.00,,,0.66,Wunderground v.1.15,2013-08-09 20:55:00,
2013-08-09 17:00:00,73.9,64.7,29.60,NW,304,5.0,-999.0,73,0.00,,,0.66,Wunderground v.1.15,2013-08-09 21:00:00,
2013-08-09 17:10:00,73.6,64.0,29.60,West,273,5.0,-999.0,72,0.00,,,0.66,Wunderground v.1.15,2013-08-09 21:10:00,
2013-08-09 17:15:00,73.3,64.1,29.60,West,276,4.0,-999.0,73,0.00,,,0.66,Wunderground v.1.15,2013-08-09 21:15:00,
2013-08-09 17:20:00,73.3,63.7,29.60,WNW,294,4.0,-999.0,72,0.00,,,0.66,Wunderground v.1.15,2013-08-09 21:20:00,
2013-08-09 17:25:00,73.4,63.0,29.60,WNW,294,4.0,-999.0,70,0.00,,,0.66,Wunderground v.1.15,2013-08-09 21:25:00,
2013-08-09 17:30:00,73.6,62.8,29.60,WNW,287,4.0,-999.0,69,0.00,,,0.66,Wunderground v.1.15,2013-08-09 21:30:00,
2013-08-09 17:35:00,73.6,62.8,29.60,WNW,288,5.0,-999.0,69,0.00,,,0.66,Wunderground v.1.15,2013-08-09 21:35:00,
2013-08-09 17:40:00,73.5,61.9,29.59,WNW,299,5.0,-999.0,67,0.00,,,0.66,Wunderground v.1.15,2013-08-09 21:40:00,
2013-08-09 17:50:00,73.6,62.8,29.60,West,275,4.0,-999.0,69,0.00,,,0.66,Wunderground v.1.15,2013-08-09 21:50:00,
2013-08-09 17:55:00,73.5,62.3,29.60,WNW,300,5.0,-999.0,68,0.00,,,0.66,Wunderground v.1.15,2013-08-09 21:55:00,
2013-08-09 18:00:00,73.5,61.9,29.60,WNW,300,4.0,-999.0,67,0.00,,,0.66,Wunderground v.1.15,2013-08-09 22:00:00,
2013-08-09 18:10:00,73.4,61.8,29.59,WNW,291,5.0,-999.0,67,0.00,,,0.66,Wunderground v.1.15,2013-08-09 22:10:00,
2013-08-09 18:20:00,73.3,62.1,29.59,WNW,296,4.0,-999.0,68,0.00,,,0.66,Wunderground v.1.15,2013-08-09 22:20:00,
2013-08-09 18:25:00,73.0,62.2,29.59,WNW,295,5.0,-999.0,69,0.00,,,0.66,Wunderground v.1.15,2013-08-09 22:25:00,
2013-08-09 18:30:00,72.6,62.7,29.59,WNW,295,4.0,-999.0,71,0.00,,,0.66,Wunderground v.1.15,2013-08-09 22:30:00,
2013-08-09 18:35:00,72.2,62.3,29.59,WNW,294,4.0,-999.0,71,0.00,,,0.66,Wunderground v.1.15,2013-08-09 22:35:00,
2013-08-09 18:40:00,72.0,62.5,29.59,WNW,293,4.0,-999.0,72,0.00,,,0.66,Wunderground v.1.15,2013-08-09 22:40:00,
2013-08-09 18:45:00,72.0,62.5,29.60,West,280,4.0,-999.0,72,0.00,,,0.66,Wunderground v.1.15,2013-08-09 22:45:00,
2013-08-09 18:55:00,72.1,62.6,29.60,West,279,5.0,-999.0,72,0.00,,,0.66,Wunderground v.1.15,2013-08-09 22:55:00,
2013-08-09 19:00:00,72.0,62.5,29.60,West,279,4.0,-999.0,72,0.00,,,0.66,Wunderground v.1.15,2013-08-09 23:00:00,
2013-08-09 19:10:00,71.8,63.1,29.60,West,279,3.0,-999.0,74,0.00,,,0.66,Wunderground v.1.15,2013-08-09 23:10:00,
2013-08-09 19:15:00,71.4,62.3,29.61,West,277,4.0,-999.0,73,0.00,,,0.66,Wunderground v.1.15,2013-08-09 23:15:00,
2013-08-09 19:25:00,71.1,62.4,29.61,West,277,5.0,-999.0,74,0.00,,,0.66,Wunderground v.1.15,2013-08-09 23:25:00,
2013-08-09 19:30:00,70.8,62.1,29.61,West,275,5.0,-999.0,74,0.00,,,0.66,Wunderground v.1.15,2013-08-09 23:30:00,
2013-08-09 19:35:00,70.6,62.3,29.62,West,275,5.0,-999.0,75,0.00,,,0.66,Wunderground v.1.15,2013-08-09 23:35:00,
2013-08-09 19:40:00,70.3,62.4,29.62,West,275,5.0,-999.0,76,0.00,,,0.66,Wunderground v.1.15,2013-08-09 23:40:00,
2013-08-09 19:45:00,70.1,62.2,29.62,West,275,4.0,-999.0,76,0.00,,,0.66,Wunderground v.1.15,2013-08-09 23:45:00,
2013-08-09 19:50:00,69.8,62.3,29.62,West,275,4.0,-999.0,77,0.00,,,0.66,Wunderground v.1.15,2013-08-09 23:50:00,
2013-08-09 19:55:00,69.6,62.4,29.62,West,275,4.0,-999.0,78,0.00,,,0.66,Wunderground v.1.15,2013-08-09 23:55:00,
2013-08-09 20:05:00,68.8,62.7,29.62,West,275,4.0,-999.0,81,0.00,,,0.66,Wunderground v.1.15,2013-08-10 00:05:00,
2013-08-09 20:10:00,68.5,62.4,29.63,West,275,4.0,-999.0,81,0.00,,,0.66,Wunderground v.1.15,2013-08-10 00:10:00,
2013-08-09 20:15:00,68.4,62.3,29.63,West,275,4.0,-999.0,81,0.00,,,0.66,Wunderground v.1.15,2013-08-10 00:15:00,
2013-08-09 20:20:00,68.0,62.3,29.63,West,275,3.0,-999.0,82,0.00,,,0.66,Wunderground v.1.15,2013-08-10 00:20:00,
2013-08-09 20:30:00,67.5,62.2,29.63,West,275,4.0,-999.0,83,0.00,,,0.66,Wunderground v.1.15,2013-08-10 00:30:00,
2013-08-09 20:35:00,67.5,62.2,29.63,West,275,4.0,-999.0,83,0.00,,,0.66,Wunderground v.1.15,2013-08-10 00:35:00,
2013-08-09 20:40:00,67.3,62.0,29.63,West,275,4.0,-999.0,83,0.00,,,0.66,Wunderground v.1.15,2013-08-10 00:40:00,
2013-08-09 20:45:00,67.0,61.7,29.63,West,275,4.0,-999.0,83,0.00,,,0.66,Wunderground v.1.15,2013-08-10 00:45:00,
2013-08-09 20:50:00,66.6,61.6,29.64,West,275,4.0,-999.0,84,0.00,,,0.66,Wunderground v.1.15,2013-08-10 00:50:00,
2013-08-09 20:55:00,66.2,61.6,29.64,West,275,3.0,-999.0,85,0.00,,,0.66,Wunderground v.1.15,2013-08-10 00:55:00,
2013-08-09 21:00:00,65.6,61.3,29.65,West,275,3.0,-999.0,86,0.00,,,0.66,Wunderground v.1.15,2013-08-10 01:00:00,
2013-08-09 21:10:00,65.3,61.3,29.65,West,275,4.0,-999.0,87,0.00,,,0.66,Wunderground v.1.15,2013-08-10 01:10:00,
2013-08-09 21:15:00,65.2,61.2,29.65,West,275,4.0,-999.0,87,0.00,,,0.66,Wunderground v.1.15,2013-08-10 01:15:00,
2013-08-09 21:20:00,64.9,60.9,29.65,West,275,3.0,-999.0,87,0.00,,,0.66,Wunderground v.1.15,2013-08-10 01:20:00,
2013-08-09 21:25:00,64.9,60.9,29.65,West,275,3.0,-999.0,87,0.00,,,0.66,Wunderground v.1.15,2013-08-10 01:25:00,
2013-08-09 21:30:00,64.9,60.9,29.66,West,275,4.0,-999.0,87,0.00,,,0.66,Wunderground v.1.15,2013-08-10 01:30:00,
2013-08-09 21:35:00,64.9,60.9,29.66,West,275,4.0,-999.0,87,0.00,,,0.66,Wunderground v.1.15,2013-08-10 01:35:00,
2013-08-09 21:40:00,64.7,60.7,29.66,West,275,3.0,-999.0,87,0.00,,,0.66,Wunderground v.1.15,2013-08-10 01:40:00,
2013-08-09 21:45:00,64.7,60.7,29.66,West,275,4.0,-999.0,87,0.00,,,0.66,Wunderground v.1.15,2013-08-10 01:45:00,
2013-08-09 21:50:00,64.7,60.4,29.66,West,275,5.0,-999.0,86,0.00,,,0.66,Wunderground v.1.15,2013-08-10 01:50:00,
2013-08-09 21:55:00,64.6,60.3,29.66,West,275,5.0,-999.0,86,0.00,,,0.66,Wunderground v.1.15,2013-08-10 01:55:00,
2013-08-09 22:00:00,64.4,60.1,29.66,West,275,5.0,-999.0,86,0.00,,,0.66,Wunderground v.1.15,2013-08-10 02:00:00,
2013-08-09 22:10:00,64.1,60.2,29.66,West,275,4.0,-999.0,87,0.00,,,0.66,Wunderground v.1.15,2013-08-10 02:10:00,
2013-08-09 22:15:00,63.8,59.9,29.67,West,275,4.0,-999.0,87,0.00,,,0.66,Wunderground v.1.15,2013-08-10 02:15:00,
2013-08-09 22:20:00,63.6,60.0,29.66,West,275,4.0,-999.0,88,0.00,,,0.66,Wunderground v.1.15,2013-08-10 02:20:00,
2013-08-09 22:25:00,63.4,59.5,29.67,West,275,4.0,-999.0,87,0.00,,,0.66,Wunderground v.1.15,2013-08-10 02:25:00,
2013-08-09 22:30:00,63.4,59.5,29.66,West,275,4.0,-999.0,87,0.00,,,0.66,Wunderground v.1.15,2013-08-10 02:30:00,
2013-08-09 22:40:00,63.4,58.8,29.66,West,275,5.0,-999.0,85,0.00,,,0.66,Wunderground v.1.15,2013-08-10 02:40:00,
2013-08-09 22:45:00,63.3,58.7,29.67,West,275,5.0,-999.0,85,0.00,,,0.66,Wunderground v.1.15,2013-08-10 02:45:00,
2013-08-09 22:50:00,63.2,58.6,29.67,West,275,5.0,-999.0,85,0.00,,,0.66,Wunderground v.1.15,2013-08-10 02:50:00,
2013-08-09 22:55:00,63.1,58.5,29.67,West,267,5.0,-999.0,85,0.00,,,0.66,Wunderground v.1.15,2013-08-10 02:55:00,
2013-08-09 23:00:00,63.1,58.5,29.67,West,267,5.0,-999.0,85,0.00,,,0.66,Wunderground v.1.15,2013-08-10 03:00:00,
2013-08-09 23:10:00,63.2,58.3,29.67,West,263,6.0,-999.0,84,0.00,,,0.66,Wunderground v.1.15,2013-08-10 03:10:00,
2013-08-09 23:15:00,63.2,58.3,29.67,West,259,6.0,-999.0,84,0.00,,,0.66,Wunderground v.1.15,2013-08-10 03:15:00,
2013-08-09 23:20:00,63.2,58.3,29.67,West,259,6.0,-999.0,84,0.00,,,0.66,Wunderground v.1.15,2013-08-10 03:20:00,
2013-08-09 23:25:00,63.2,58.3,29.67,West,259,6.0,-999.0,84,0.00,,,0.66,Wunderground v.1.15,2013-08-10 03:25:00,
2013-08-09 23:30:00,63.1,58.2,29.67,West,259,5.0,-999.0,84,0.00,,,0.66,Wunderground v.1.15,2013-08-10 03:30:00,
2013-08-09 23:35:00,63.2,58.3,29.67,West,259,5.0,-999.0,84,0.00,,,0.66,Wunderground v.1.15,2013-08-10 03:35:00,
2013-08-09 23:45:00,63.0,58.4,29.68,WSW,258,6.0,-999.0,85,0.00,,,0.66,Wunderground v.1.15,2013-08-10 03:45:00,
2013-08-09 23:50:00,62.9,58.3,29.68,WSW,257,5.0,-999.0,85,0.00,,,0.66,Wunderground v.1.15,2013-08-10 03:50:00,
2013-08-09 23:55:00,62.8,58.5,29.68,WSW,258,5.0,-999.0,86,0.00,,,0.66,Wunderground v.1.15,2013-08-10 03:55:00,